Weather History for Tacoma Narrows, WA

Change the Weather History Date:

Wednesday, January 23, 2013

  Actual Average Record
Temperature  
Mean Temperature 39 °F -  
Max Temperature 41 °F 45 °F 57 °F (2002)
Min Temperature 37 °F 37 °F 25 °F (2008)
Degree Days  
Heating Degree Days 26    
Moisture  
Dew Point 36 °F    
Average Humidity 85    
Maximum Humidity 89    
Minimum Humidity 73    
Precipitation  
Precipitation 0.18 in - - ()
Sea Level Pressure  
Sea Level Pressure 29.96 in    
Wind  
Wind Speed 7 mph (South)    
Max Wind Speed 16 mph    
Max Gust Speed 22 mph    
Visibility 8 miles    
Events Rain    
Averages and records for this station are not official NWS values.
T = Trace of Precipitation, MM = Missing Value Source: NWS Daily Summary

Daily Weather History Graph

Daily Weather History Graph

Search for Another Location

Airport:

Trip Planner

Search our weather history database for the weather conditions in past years. The results will help you decide how hot, cold, wet, or windy it might be!

Date:

Astronomy

Jan. 23, 2013 Rise Set
Actual Time 7:45 AM PST 4:59 PM PST
Civil Twilight 7:12 AM PST 5:32 PM PST
Nautical Twilight 6:34 AM PST 6:10 PM PST
Astronomical Twilight 5:58 AM PST 6:46 PM PST
Moon 2:11 PM PST (1/23) 5:05 AM PST (1/23)
Length of Visible Light 10h 20m
Length of Day
9h 13m
Waxing Gibbous, 90% of the Moon is Illuminated
Jan 23
Waxing Gibbous
Jan 26
Full
Feb 3
Last Quarter
Feb 9
New
Feb 17
First Quarter

Hourly Weather History & Observations

Time (PST) Temp. Windchill Dew Point Humidity Pressure Visibility Wind Dir Wind Speed Gust Speed Precip Events Conditions
12:53 AM 39.0 °F 33.4 °F 33.1 °F 79% 29.95 in 10.0 mi SSE 8.1 mph 16.1 mph N/A   Overcast
1:53 AM 37.9 °F 34.4 °F 32.0 °F 79% 29.94 in 10.0 mi WSW 4.6 mph - N/A   Overcast
2:53 AM 39.0 °F 33.4 °F 33.1 °F 79% 29.96 in 10.0 mi SE 8.1 mph - N/A   Overcast
3:53 AM 39.9 °F 36.7 °F 32.0 °F 73% 29.93 in 10.0 mi NNW 4.6 mph - N/A   Overcast
4:53 AM 39.9 °F - 34.0 °F 79% 29.93 in 10.0 mi Calm Calm - N/A   Overcast
5:53 AM 39.9 °F 36.7 °F 33.1 °F 77% 29.93 in 10.0 mi SE 4.6 mph - N/A   Overcast
6:53 AM 39.2 °F 37.0 °F 33.8 °F 81% 29.89 in 10.0 mi WSW 3.5 mph - N/A   Overcast
7:53 AM 41.0 °F - 34.0 °F 76% 29.89 in 10.0 mi Calm Calm - N/A   Overcast
8:53 AM 39.9 °F - 35.1 °F 83% 29.89 in 10.0 mi Calm Calm - N/A   Overcast
9:53 AM 41.0 °F 39.0 °F 37.0 °F 86% 29.90 in 10.0 mi SE 3.5 mph - 0.00 in Rain Light Rain
10:53 AM 39.9 °F 35.8 °F 36.0 °F 86% 29.92 in 8.0 mi South 5.8 mph - 0.01 in Rain Light Rain
11:53 AM 39.9 °F - 36.0 °F 86% 29.88 in 8.0 mi Calm Calm - 0.02 in Rain Light Rain
12:53 PM 39.9 °F - 37.0 °F 89% 29.87 in 5.0 mi Calm Calm - 0.02 in Rain Light Rain
1:09 PM 39.2 °F 35.0 °F 35.6 °F 87% 29.85 in 4.0 mi Variable 5.8 mph - N/A Rain Light Rain
1:53 PM 39.0 °F 34.0 °F 36.0 °F 89% 29.87 in 4.0 mi SSW 6.9 mph - 0.02 in Rain Light Rain
2:30 PM 39.2 °F 35.0 °F 35.6 °F 87% 29.87 in 3.0 mi SSW 5.8 mph - 0.04 in Rain Light Rain
2:53 PM 39.0 °F 34.0 °F 36.0 °F 89% 29.89 in 3.0 mi SSW 6.9 mph - 0.05 in Rain Light Rain
2:56 PM 39.2 °F 34.2 °F 35.6 °F 87% 29.88 in 3.0 mi SSW 6.9 mph - 0.01 in Rain Light Rain
3:53 PM 39.0 °F 32.3 °F 36.0 °F 89% 29.91 in 3.0 mi South 10.4 mph - 0.05 in Rain Light Rain
4:53 PM 41.0 °F 34.3 °F 37.0 °F 86% 29.94 in 10.0 mi South 11.5 mph 21.9 mph 0.01 in   Overcast
5:53 PM 41.0 °F 33.9 °F 37.0 °F 86% 29.95 in 10.0 mi South 12.7 mph 21.9 mph N/A   Mostly Cloudy
6:09 PM 41.0 °F 33.1 °F 37.4 °F 87% 29.95 in 10.0 mi South 15.0 mph 21.9 mph N/A   Scattered Clouds
6:53 PM 41.0 °F 33.5 °F 37.0 °F 86% 29.99 in 10.0 mi South 13.8 mph 21.9 mph N/A   Overcast
7:22 PM 41.0 °F 34.3 °F 37.4 °F 87% 30.00 in 10.0 mi South 11.5 mph - N/A   Overcast
7:53 PM 41.0 °F 34.7 °F 37.0 °F 86% 30.04 in 10.0 mi South 10.4 mph - N/A   Overcast
8:00 PM 41.0 °F 34.7 °F 37.4 °F 87% 30.03 in 10.0 mi South 10.4 mph - N/A   Overcast
8:53 PM 39.9 °F 31.4 °F 36.0 °F 86% 30.06 in 10.0 mi South 16.1 mph 21.9 mph N/A   Overcast
9:53 PM 41.0 °F 34.3 °F 37.0 °F 86% 30.10 in 10.0 mi South 11.5 mph - N/A   Overcast
10:06 PM 41.0 °F 34.3 °F 37.4 °F 87% 30.10 in 10.0 mi SSW 11.5 mph 21.9 mph N/A   Overcast
10:35 PM 41.0 °F 33.5 °F 37.4 °F 87% 30.11 in 10.0 mi South 13.8 mph 21.9 mph N/A   Mostly Cloudy
10:53 PM 39.9 °F 32.5 °F 37.0 °F 89% 30.12 in 10.0 mi South 12.7 mph - N/A   Partly Cloudy
11:53 PM 39.9 °F 31.8 °F 37.0 °F 89% 30.15 in 10.0 mi South 15.0 mph - N/A   Partly Cloudy